This demonstration page uses our WeatherBlox Daily Observations layout. Learn more.

Left ArrowRight Arrow

41.86663, -103.66717

Hourly Observations for October 4, 2022

Temp ( °F °C ) Dew Point ( °F °C ) Humidity (%) Winds ( mph kmh ) Pressure ( in mb ) Visibility ( mi km ) Precip ( " mm )
12:53 am 00:53 Cloudy with Nearby Thunderstorms 53 11.7 49 9.4 86 86 NNE 9 15 30.10 1019 10 16 0.00 0.00
1:09 am 01:09 Mostly Cloudy 54 12.2 49 9.4 83 83 ENE 8 13 30.10 1019 10 16 0.00 0.00
1:53 am 01:53 Partly Cloudy 51 10.6 47 8.3 86 86 WSW 3 6 30.09 1019 10 16 0.00 0.00
2:25 am 02:25 Clear with Nearby Thunderstorms 50 10 46 7.8 86 86 W 6 9 30.14 1021 10 16 0.00 0.00
2:53 am 02:53 Clear 49 9.4 46 7.8 90 90 Calm 30.09 1019 10 16 0.00 0.00
3:05 am 03:05 Clear with Nearby Thunderstorms 49 9.4 46 7.8 90 90 W 3 6 30.14 1021 10 16 0.00 0.00
3:20 am 03:20 Clear 48 8.9 45 7.2 89 89 W 3 6 30.15 1021 10 16 0.00 0.00
3:53 am 03:53 Mostly Clear 48 8.9 45 7.2 89 89 WNW 5 7 30.10 1019 10 16 0.00 0.00
4:53 am 04:53 Clear 48 8.9 45 7.2 89 89 W 9 15 30.11 1020 10 16 0.00 0.00
5:53 am 05:53 Clear 47 8.3 44 6.7 90 90 NW 6 9 30.15 1021 10 16 0.00 0.00
6:53 am 06:53 Mostly Clear 47 8.3 43 6.1 86 86 NW 8 13 30.15 1021 10 16 0.00 0.00
7:53 am 07:53 Mostly Sunny 49 9.4 45 7.2 86 86 WNW 6 9 30.16 1021 10 16 0.00 0.00
8:53 am 08:53 Partly Cloudy 51 10.6 46 7.8 83 83 NNW 7 11 30.16 1021 10 16 0.01 0.13
9:53 am 09:53 Sunny with Light Rain 54 12.2 46 7.8 74 74 WNW 8 13 30.17 1022 10 16 0.01 0.13
10:53 am 10:53 Sunny 60 15.6 45 7.2 57 57 WNW 8 13 30.14 1021 10 16 0.01 0.13
11:53 am 11:53 Sunny 61 16.1 45 7.2 56 56 WNW 7 11 30.14 1021 10 16 0.00 0.00
12:53 pm 12:53 Sunny 64 17.8 44 6.7 48 48 NW 9 15 30.11 1020 10 16 0.00 0.00
1:53 pm 13:53 Sunny 68 20 43 6.1 40 40 W 9 15 30.08 1019 10 16 0.00 0.00
2:53 pm 14:53 Mostly Sunny 67 19.4 43 6.1 42 42 VRB 5 7 30.07 1018 10 16 0.00 0.00
3:53 pm 15:53 Cloudy with Strong Thunderstorms 56 13.3 48 8.9 75 75 N 17 28 30.13 1020 3 4 0.07 1.78
4:07 pm 16:07 Mostly Cloudy with Heavy Rain 60 15.6 53 11.7 78 78 ENE 7 11 30.02 1017 6 10 0.10 2.54
4:53 pm 16:53 Mostly Cloudy 66 18.9 N/A N/A NNE 6 9 30.08 1019 10 16 0.10 2.54
5:53 pm 17:53 Mostly Cloudy 63 17.2 N/A N/A NNE 12 19 30.11 1020 10 16 0.00 0.00
6:53 pm 18:53 Clear 58 14.4 N/A N/A Calm 30.12 1020 10 16 0.00 0.00
7:53 pm 19:53 Clear 54 12.2 N/A N/A Calm 30.15 1021 10 16 0.00 0.00
8:53 pm 20:53 Clear 53 11.7 N/A N/A SSW 3 6 30.17 1022 10 16 0.00 0.00
9:53 pm 21:53 Mostly Clear 50 10 N/A N/A Calm 30.19 1022 10 16 0.00 0.00
10:53 pm 22:53 Mostly Cloudy 49 9.4 46 7.8 90 90 Calm 30.19 1022 10 16 0.00 0.00
11:53 pm 23:53 Mostly Cloudy 47 8.3 44 6.7 90 90 NNW 6 9 30.20 1023 10 16 0.00 0.00

Powered by AerisWeather